Location: STAR School
(35.3054°N, 111.2976°W)
Time: 08:22:41
(UTC-07:00)

Vanguard 1 - Pass Details

Date: 24 October 2019
Orbit: 652 x 3831 km, 34.2° (Epoch: 19 November)

Event Time Altitude Azimuth Distance (km) Brightness Sun altitude
Rises 19:15:44 0° 262° (W) 3,625 14.5 -20.3°
Reaches altitude 10° 19:17:49 10° 261° (W) 2,899 13.6 -20.8°
Maximum altitude 19:24:57 84° 174° (S) 1,564 10.9 -22.2°
Enters shadow 19:31:05 34° 90° (E) 2,969 11.9 -23.5°
